Location: Newark
(50.8547°N, 2.7256°E)
Time: 20:50:59
(UTC+00:00)

Envisat - Pass Details

Date: 28 January 2020
Orbit: 764 x 766 km, 98.1° (Epoch: 25 February)

Event Time Altitude Azimuth Distance (km) Brightness Sun altitude
Rises 18:58:26 0° 213° (SSW) 3,224 6.7 -22.8°
Reaches altitude 10° 19:01:34 10° 233° (SW) 2,303 6.2 -23.3°
Maximum altitude 19:04:46 17° 273° (W) 1,887 5.9 -23.8°
Drops below altitude 10° 19:07:59 10° 312° (NW) 2,314 6.1 -24.3°
Sets 19:11:10 0° 333° (NNW) 3,246 6.6 -24.9°
